SCP
0 0 0 0 0 0 0 0 0 0 0 0 0 0 0 0 0 0 0 0 0 0 0 0 0 0 0 0 0 0 0 0 0 0 0 0 0 0 0 0 0 0 0 0 0 0 0 0 0
0 0 0 0 0 0 0 0 0 0 0 0 0 0 0 0 0 0 0 0 0 0 0 0 0 0 0 0 0 0 0 0 0 0 0 0 0 0 0 0 0 0 0 0 0 0 0 0 0
0 0 0 0 0 0 0 0 0 0 0 0 0 0 0 0 0 0 0 0 0 0 0 0 0 0 0 0 0 0 0 0 0 0 0 0 0 0 0 0 0 0 0 0 0 0 0 0 0
0 0 0 0 0 0 0 0 0 0 0 0 0 0 0 0 0 0 0 0 0 0 0 0 0 0 0 0 0 0 0 0 0 0 0 0 0 0 0 0 0 0 0 0 0 0 0 0 0
0 0 0 0 0 0 0 0 0 0 0 0 0 0 0 0 0 0 0 0 0 0 0 0 0 0 0 0 0 0 0 0 0 0 0 0 0 0 0 0 0 0 0 0 0 0 0 0 0
0 0 0 0 0 0 0 0 0 0 0 0 0 0 0 0 0 0 0 0 0 0 0 0 0 0 0 0 0 0 0 0 0 0 0 0 0 0 0 0 0 0 0 0 0 0 0 0 0
0 0 0 0 0 0 0 0 0 0 0 0 0 0 0 0 0 0 0 0 0 0 0 0 0 0 0 0 0 0 0 0 0 0 0 0 0 0 0 0 0 0 0 0 0 0 0 0 0
0 0 0 0 0 0 0 0 0 0 0 0 0 0 0 0 0 0 0 0 0 0 0 0 0 0 0 0 0 0 0 0 0 0 0 0 0 0 0 0 0 0 0 0 0 0 0 0 0
0 0 0 0 0 0 0 0 0 0 0 0 0 0 0 0 0 0 0 0 0 0 0 0 0 0 0 0 0 0 0 0 0 0 0 0 0 0 0 0 0 0 0 0 0 0 0 0 0
0 0 0 0 0 0 0 0 0 0 0 0 0 0 0 0 0 0 0 0 0 0 0 0 0 0 0 0 0 0 0 0 0 0 0 0 0 0 0 0 0 0 0 0 0 0 0 0 0
0 0 0 0 0 0 0 0 0 0 0 0 0 0 0 0 0 0 0 0 0 0 0 0 0 0 0 0 0 0 0 0 0 0 0 0 0 0 0 0 0 0 0 0 0 0 0 0 0
0 0 0 0 0 0 0 0 0 0 0 0 0 0 0 0 0 0 0 0 0 0 0 0 0 0 0 0 0 0 0 0 0 0 0 0 0 0 0 0 0 0 0 0 0 0 0 0 0
0 0 0 0 0 0 0 0 0 0 0 0 0 0 0 0 0 0 0 0 0 0 0 0 0 0 0 0 0 0 0 0 0 0 0 0 0 0 0 0 0 0 0 0 0 0 0 0 0
0 0 0 0 0 0 0 0 0 0 0 0 0 0 0 0 0 0 0 0 0 0 0 0 0 0 0 0 0 0 0 0 0 0 0 0 0 0 0 0 0 0 0 0 0 0 0 0 0
0 0 0 0 0 0 0 0 0 0 0 0 0 0 0 0 0 0 0 0 0 0 0 0 0 0 0 0 0 0 0 0 0 0 0 0 0 0 0 0 0 0 0 0 0 0 0 0 0
0 0 0 0 0 0 0 0 0 0 0 0 0 0 0 0 0 0 0 0 0 0 0 0 0 0 0 0 0 0 0 0 0 0 0 0 0 0 0 0 0 0 0 0 0 0 0 0 0
0 0 0 0 0 0 0 0 0 0 0 0 0 0 0 0 0 0 0 0 0 0 0 0 0 0 0 0 0 0 0 0 0 0 0 0 0 0 0 0 0 0 0 0 0 0 0 0 0
0 0 0 0 0 0 0 0 0 0 0 0 0 0 0 0 0 0 0 0 0 0 0 0 0 0 0 0 0 0 0 0 0 0 0 0 0 0 0 0 0 0 0 0 0 0 0 0 0
0 0 0 0 0 0 0 0 0 0 0 0 0 0 0 0 0 0 0 0 0 0 0 0 0 0 0 0 0 0 0 0 0 0 0 0 0 0 0 0 0 0 0 0 0 0 0 0 0
0 0 0 0 0 0 0 0 0 0 0 0 0 0 0 0 0 0 0 0 0 0 0 0 0 0 0 0 0 0 0 0 0 0 0 0 0 0 0 0 0 0 0 0 0 0 0 0 0
0 0 0 0 0 0 0 0 0 0 0 0 0 0 0 0 0 0 0 0 0 0 0 0 0 0 0 0 0 0 0 0 0 0 0 0 0 0 0 0 0 0 0 0 0 0 0 0 0
0 0 0 0 0 0 0 0 0 0 0 0 0 0 0 0 0 0 0 0 0 0 0 0 0 0 0 0 0 0 0 0 0 0 0 0 0 0 0 0 0 0 0 0 0 0 0 0 0
0 0 0 0 0 0 0 0 0 0 0 0 0 0 0 0 0 0 0 0 0 0 0 0 0 0 0 0 0 0 0 0 0 0 0 0 0 0 0 0 0 0 0 0 0 0 0 0 0
0 0 0 0 0 0 0 0 0 0 0 0 0 0 0 0 0 0 0 0 0 0 0 0 0 0 0 0 0 0 0 0 0 0 0 0 0 0 0 0 0 0 0 0 0 0 0 0 0
0 0 0 0 0 0 0 0 0 0 0 0 0 0 0 0 0 0 0 0 0 0 0 0 0 0 0 0 0 0 0 0 0 0 0 0 0 0 0 0 0 0 0 0 0 0 0 0 0
0 0 0 0 0 0 0 0 0 0 0 0 0 0 0 0 0 0 0 0 0 0 0 0 0 0 0 0 0 0 0 0 0 0 0 0 0 0 0 0 0 0 0 0 0 0 0 0 0
0 0 0 0 0 0 0 0 0 0 0 0 0 0 0 0 0 0 0 0 0 0 0 0 0 0 0 0 0 0 0 0 0 0 0 0 0 0 0 0 0 0 0 0 0 0 0 0 0
0 0 0 0 0 0 0 0 0 0 0 0 0 0 0 0 0 0 0 0 0 0 0 0 0 0 0 0 0 0 0 0 0 0 0 0 0 0 0 0 0 0 0 0 0 0 0 0 0
0 0 0 0 0 0 0 0 0 0 0 0 0 0 0 0 0 0 0 0 0 0 0 0 0 0 0 0 0 0 0 0 0 0 0 0 0 0 0 0 0 0 0 0 0 0 0 0 0
0 0 0 0 0 0 0 0 0 0 0 0 0 0 0 0 0 0 0 0 0 0 0 0 0 0 0 0 0 0 0 0 0 0 0 0 0 0 0 0 0 0 0 0 0 0 -0 -0 -0
Wind_Speed
3 2 2 4 7 6 3 1 2 2 3 4 6 8 7 5 3 4 3 4 5 3 1 3 7 8 10 11 11 11 11 11 12 12 12 12 12 12 11 11 11 11 11 11 11 11 10 10 10
1 1 4 5 6 4 2 1 3 3 4 4 6 6 6 5 3 3 1 3 5 4 2 4 8 9 10 11 11 11 11 12 12 12 12 13 13 12 12 11 11 11 11 11 11 11 10 10 10
1 1 4 5 4 4 3 1 4 4 3 3 4 5 5 3 2 2 2 5 6 4 3 4 9 9 10 10 11 11 11 12 12 12 12 13 13 13 12 12 12 12 12 12 11 11 10 10 10
3 4 5 6 5 2 4 4 5 5 4 5 5 6 4 2 2 3 5 7 6 4 3 5 9 9 9 10 10 11 11 12 12 12 12 12 12 12 13 13 13 13 12 12 11 11 11 10 10
4 5 6 4 3 2 3 4 5 5 3 4 6 6 3 3 4 5 6 6 6 4 3 4 8 8 9 9 9 10 11 11 11 11 12 12 12 12 12 12 12 12 11 11 11 10 10 10 10
5 5 5 3 2 2 2 3 5 7 6 5 6 5 2 1 4 4 6 5 6 5 4 4 8 8 8 8 8 10 10 10 11 11 11 11 11 11 12 11 11 11 11 10 10 10 10 9 9
5 4 4 5 4 2 2 3 5 5 5 3 4 5 2 1 2 4 5 5 5 5 4 3 3 4 6 8 9 10 10 10 11 11 10 11 11 11 11 11 11 11 10 10 10 9 9 9 9
5 5 3 3 4 1 1 3 4 5 4 4 4 6 4 4 3 4 5 5 5 5 4 3 3 3 3 5 9 10 9 9 10 10 10 10 10 9 10 9 9 10 10 10 10 10 10 10 10
4 5 3 4 5 3 2 4 2 4 6 3 3 4 5 6 6 6 5 5 4 4 3 3 2 3 3 4 7 7 7 8 7 7 9 7 4 4 5 7 8 9 10 10 10 10 10 10 9
5 4 3 4 6 6 3 3 3 4 5 4 5 5 7 7 6 6 6 5 4 3 2 2 2 2 3 4 4 3 3 3 3 3 4 3 2 3 4 6 8 9 9 9 10 10 9 7 4
4 4 3 4 5 6 4 2 2 6 3 6 9 9 7 7 6 5 5 4 4 4 3 3 3 3 3 2 2 2 2 2 3 3 3 3 3 3 3 3 4 5 6 5 6 6 4 4 3
5 3 4 4 4 5 3 3 3 3 4 6 10 10 8 7 6 6 5 4 4 4 3 3 3 3 3 3 2 2 2 2 2 2 3 3 2 3 2 2 3 3 2 3 3 3 4 4 4
5 3 4 4 5 5 5 4 4 2 4 7 9 9 8 7 6 5 5 5 5 4 3 4 4 4 3 3 2 3 2 2 2 2 2 3 2 2 2 2 2 3 2 3 3 3 4 4 4
4 4 4 4 4 2 5 2 3 3 6 7 8 7 7 7 6 5 5 5 5 4 4 4 4 4 4 3 2 2 2 2 3 3 3 3 3 3 2 2 3 3 2 3 3 3 3 3 3
4 5 3 1 2 2 5 1 2 5 7 7 7 7 7 6 6 6 7 6 6 5 4 4 5 4 4 4 3 3 2 3 3 2 3 3 3 3 3 2 2 2 2 3 3 4 3 4 4
3 3 1 2 2 3 5 3 4 5 7 6 6 6 6 5 6 6 6 6 6 5 5 4 5 5 4 4 3 3 3 3 3 2 2 4 4 3 3 3 2 2 3 3 3 3 3 3 3
2 2 3 3 2 3 4 3 4 5 6 6 5 6 6 5 4 5 6 6 6 6 5 4 5 5 4 4 4 3 3 3 2 3 3 3 4 4 3 3 2 3 3 3 3 3 2 3 3
2 2 2 3 2 4 4 3 3 5 6 6 5 5 6 6 6 5 6 6 6 5 5 5 5 5 5 4 3 3 3 3 2 2 2 3 3 4 3 3 3 3 3 3 3 2 2 2 2
4 3 2 3 3 4 4 4 5 5 4 5 5 5 6 6 5 5 6 6 6 5 5 5 5 4 4 3 2 2 2 1 2 2 2 3 3 3 3 2 2 3 3 2 2 2 3 3 2
3 2 1 1 1 3 3 4 5 4 7 8 8 7 6 5 5 5 5 5 6 6 5 5 5 4 4 3 2 2 2 1 1 1 2 2 3 3 3 3 2 2 2 3 3 3 2 2 2
3 4 4 3 0 1 2 3 3 3 3 3 5 6 6 8 9 7 7 6 6 6 6 6 5 4 4 4 3 3 3 2 2 2 2 2 2 2 2 2 2 2 2 2 2 2 3 1 2
3 4 4 3 2 2 2 2 5 3 2 4 4 4 6 6 7 7 7 7 7 6 5 5 5 5 4 4 4 4 3 2 1 0 0 1 2 2 2 2 2 2 1 1 1 2 1 2 1
5 4 3 3 3 0 1 2 6 1 3 5 5 5 5 5 7 8 8 8 6 5 5 5 5 5 4 4 5 5 3 1 1 1 1 2 2 2 1 1 2 1 1 1 1 2 1 1 1
2 3 4 4 3 1 4 4 5 3 6 4 5 5 5 5 5 6 6 6 5 4 4 5 6 5 4 4 4 5 4 3 2 1 1 1 1 1 2 1 1 1 1 0 1 1 1 1 1
5 6 3 4 3 4 2 3 5 4 4 5 5 5 5 4 5 5 6 5 6 6 5 5 6 5 4 4 4 4 4 4 3 2 1 1 0 1 1 1 1 0 0 0 1 1 1 1 1
3 7 6 3 3 4 2 3 4 3 2 2 3 4 4 4 4 5 6 6 6 7 6 6 6 5 4 4 4 3 4 3 2 2 2 2 1 1 1 0 0 0 0 1 1 1 0 1 1
3 3 6 5 1 1 3 3 3 2 3 3 4 4 4 4 3 4 6 6 6 6 6 6 6 5 4 4 4 3 3 3 3 2 2 1 1 1 0 0 0 1 1 1 1 1 0 1 1
4 5 4 3 2 2 4 3 4 3 2 1 3 3 3 3 3 4 4 5 5 6 5 5 5 5 4 3 3 3 3 2 3 2 2 2 1 0 1 1 1 1 1 1 2 1 1 1 1
1 2 3 3 4 4 3 6 4 6 5 5 5 4 4 3 3 3 4 4 5 4 5 5 4 4 3 3 3 3 2 2 2 2 2 2 1 1 1 1 1 1 1 1 2 1 1 1 1
4 4 5 4 3 3 3 7 4 4 4 4 5 4 4 3 3 3 3 3 4 4 4 4 4 4 4 3 3 3 2 2 2 1 1 1 1 1 1 1 1 1 1 1 1 1 0 1 0
Wind_Direction
317 354 81 60 55 57 66 41 104 66 52 43 62 76 76 56 80 133 219 176 146 140 98 80 77 74 71 71 73 74 76 78 78 77 77 75 73 72 72 72 75 78 81 82 80 78 80 80 78
337 31 63 57 78 82 50 63 82 82 129 112 69 71 70 63 71 111 209 176 141 127 105 91 83 78 77 75 74 75 78 79 77 76 76 73 71 70 69 70 75 78 81 80 77 75 75 75 74
319 84 76 67 83 129 148 151 115 96 78 70 64 51 64 77 78 117 157 130 122 113 100 97 84 81 80 79 76 76 79 80 79 78 77 74 72 70 69 71 73 77 79 78 75 74 72 71 71
62 50 57 74 89 144 153 159 133 106 58 51 81 60 50 47 106 134 130 115 111 103 90 94 86 82 81 80 79 79 81 82 81 80 78 76 73 71 72 73 75 77 77 77 76 74 72 72 72
66 70 66 73 90 112 130 145 127 105 89 76 87 85 57 15 98 123 120 115 112 104 90 94 89 85 84 84 84 83 83 84 83 81 79 77 74 73 72 73 74 75 75 76 75 73 71 72 73
61 68 85 102 109 101 103 114 101 97 106 102 95 100 85 89 107 127 120 118 119 114 96 92 89 86 86 89 94 91 88 85 83 81 80 78 76 74 73 73 74 73 72 71 72 72 71 71 72
97 91 117 130 116 93 126 113 113 119 112 113 115 103 120 156 156 131 114 114 110 104 94 72 73 76 79 86 99 97 89 84 82 80 79 76 73 73 73 72 72 72 71 71 70 68 69 70 71
118 100 97 113 118 135 161 116 127 119 119 124 112 127 167 203 154 110 104 101 100 97 94 80 56 41 42 75 96 93 88 84 81 78 77 74 70 70 72 69 66 65 67 70 69 65 64 63 63
86 85 130 163 145 157 123 98 85 92 104 93 90 133 159 148 115 101 95 83 87 93 94 91 76 55 50 69 85 86 85 79 77 72 74 71 54 52 63 66 63 60 59 60 62 62 62 59 57
84 115 183 169 150 143 133 123 127 95 93 85 81 96 123 123 117 117 115 109 109 115 115 101 92 76 63 77 70 61 70 64 60 61 62 55 55 49 57 54 55 54 52 50 52 54 56 53 46
104 136 129 118 139 133 132 124 101 119 120 152 146 148 143 131 129 129 129 134 138 142 127 111 104 89 80 76 74 57 55 55 55 53 58 59 52 47 41 36 34 34 39 37 39 39 43 53 57
103 128 140 138 135 126 130 120 84 118 171 162 149 150 145 139 143 144 141 134 126 120 120 118 111 95 88 85 76 70 65 61 56 51 61 70 61 52 41 38 29 30 33 42 42 44 45 49 52
104 130 126 126 114 114 105 107 108 103 125 133 136 139 143 145 147 146 145 134 127 125 121 125 121 111 99 86 72 72 66 71 68 56 51 69 76 69 55 43 38 35 40 50 51 50 54 52 48
137 121 112 115 114 112 113 111 106 156 135 134 140 146 153 153 148 141 138 130 134 133 123 118 118 114 101 91 84 81 74 69 65 55 52 68 78 79 68 53 44 37 39 46 56 58 63 59 58
117 104 74 121 134 148 112 56 190 177 146 147 155 158 159 161 153 151 154 147 145 141 127 118 121 109 104 98 89 84 78 73 65 57 50 61 73 75 71 61 50 37 39 50 55 51 54 52 48
87 88 121 254 183 181 131 201 240 179 150 158 166 168 165 166 162 164 153 141 140 133 127 124 123 114 109 99 92 84 72 70 65 61 55 56 63 68 66 63 52 45 47 51 61 52 50 42 38
53 135 198 253 210 154 138 204 226 183 156 166 177 175 172 173 163 163 154 147 144 139 133 121 119 119 118 104 94 86 75 67 61 57 52 51 58 66 72 66 52 56 56 48 58 59 68 57 40
199 187 207 213 222 134 150 210 212 191 174 180 186 184 178 179 183 168 155 147 141 136 127 120 115 114 114 101 88 73 63 54 50 53 52 53 57 63 72 69 51 55 64 51 53 60 55 60 48
171 167 192 228 192 145 184 218 225 209 188 185 190 188 191 190 187 159 150 143 135 131 128 126 122 120 116 110 110 100 84 60 45 46 55 59 58 61 68 66 59 58 70 72 77 69 58 41 44
164 161 212 281 216 162 195 240 236 209 204 196 192 192 190 185 167 155 147 144 146 148 145 139 138 139 132 134 138 133 132 115 88 41 41 51 58 58 72 73 72 68 72 65 66 73 70 43 40
201 179 185 198 207 48 99 310 273 250 227 207 193 186 187 183 180 171 160 155 150 151 159 156 153 147 134 124 106 86 67 45 37 30 20 17 50 60 68 79 80 73 82 88 79 87 92 72 3
218 200 180 173 136 249 163 260 286 254 241 223 216 193 190 187 174 166 163 162 164 165 160 155 153 146 139 132 128 128 126 131 189 195 13 15 38 54 65 81 85 83 81 89 78 80 90 109 59
214 207 183 187 161 291 278 189 284 290 251 242 219 197 189 182 174 167 166 167 165 159 154 157 146 140 142 140 139 135 129 142 141 86 57 24 15 29 48 90 96 88 81 78 66 65 72 95 118
149 66 50 53 81 274 233 177 273 246 231 227 212 191 176 170 160 158 161 152 146 143 140 149 149 149 151 145 143 145 147 146 133 115 81 16 354 356 13 56 88 100 93 89 90 83 85 75 83
83 83 39 1 11 254 236 175 247 264 246 202 191 188 170 155 150 145 148 152 153 150 149 147 148 155 157 150 153 161 160 160 165 173 171 159 317 329 324 12 47 47 310 139 93 92 69 79 91
158 135 155 196 225 277 313 221 253 286 287 154 152 143 136 143 148 154 160 158 160 160 159 152 152 156 154 156 164 166 160 160 172 179 172 186 204 234 264 53 311 308 63 62 81 95 50 65 74
146 177 176 150 201 258 273 275 298 11 38 71 103 109 140 148 150 157 159 155 157 160 163 159 158 160 162 159 152 155 158 162 172 179 174 185 223 229 193 111 82 28 60 87 102 102 82 79 74
158 159 108 127 170 252 277 251 240 232 230 158 146 155 165 157 150 154 154 160 161 163 162 155 156 161 160 152 154 150 155 160 169 163 173 189 211 186 114 79 82 73 62 69 88 91 78 88 48
143 136 127 137 162 169 251 268 234 201 198 194 190 180 173 165 160 157 155 154 152 150 150 154 154 146 146 150 146 137 146 151 147 153 180 191 189 171 150 162 146 128 108 94 97 94 83 85 18
157 172 146 160 229 185 193 265 287 205 199 193 190 179 177 169 159 150 148 140 137 149 154 155 156 155 159 157 144 148 148 137 128 141 160 145 140 168 158 147 135 145 136 142 138 149 87 106 332